Kansas City International, MO

9:07 PM CST on December 10, 2017 (GMT -0600)
Kansas City International

Weather History for KMCI - October, 2011

Change the Weather History Date:

Sunday, October 23, 2011

  Actual Average Record
Temperature  
Mean Temperature 62 °F 54 °F  
Max Temperature 77 °F 64 °F 91 °F (1939)
Min Temperature 47 °F 44 °F 24 °F (1937)
Degree Days  
Heating Degree Days 3 11  
Month to date heating degree days 153 189  
Since 1 July heating degree days 248 256  
Cooling Degree Days 0 0  
Month to date cooling degree days 44 24  
Year to date cooling degree days 1593 1356  
Growing Degree Days 12 (Base 50)    
Moisture  
Dew Point 42 °F    
Average Humidity 53    
Maximum Humidity 77    
Minimum Humidity 28    
Precipitation  
Precipitation 0.00 in 0.09 in 1.67 in (1977)
Month to date precipitation 0.15 2.47  
Year to date precipitation 28.93 34.49  
Snow  
Snow 0.00 in 0.00 in 0.00 in ()
Month to date snowfall 0.0 0.1  
Since 1 July snowfall 0.0 0.1  
Since 1 September snowfall 0.0 0.1  
Snow Depth 0.00 in    
Sea Level Pressure  
Sea Level Pressure 29.97 in    
Wind  
Wind Speed 8 mph (SSW)    
Max Wind Speed 15 mph    
Max Gust Speed 22 mph    
Visibility 10 miles    
Events      
T = Trace of Precipitation, MM = Missing Value Source: NWS Daily Summary

Daily Weather History Graph

Daily Weather History Graph

Search for Another Location

Airport or City:

Trip Planner

Search our weather history database for the weather conditions in past years. The results will help you decide how hot, cold, wet, or windy it might be!

Date:

Astronomy

Oct. 23, 2011 Rise Set
Actual Time 7:36 AM CDT 6:29 PM CDT
Civil Twilight 7:09 AM CDT 6:56 PM CDT
Nautical Twilight 6:38 AM CDT 7:27 PM CDT
Astronomical Twilight 6:06 AM CDT 7:58 PM CDT
Moon 3:45 AM CDT (10/23) 4:19 PM CDT (10/23)
Length of Visible Light 11h 47m
Length of Day
10h 52m
Waning Crescent, 14% of the Moon is Illuminated
Oct 23
Waning Crescent
Oct 26
New
Nov 2
First Quarter
Nov 10
Full
Nov 18
Last Quarter

Hourly Weather History & Observations

Time (CDT) Temp. Dew Point Humidity Pressure Visibility Wind Dir Wind Speed Gust Speed Precip Events Conditions
12:53 AM 59.0 °F 42.1 °F 53% 30.01 in 10.0 mi East 6.9 mph - N/A   Overcast
1:53 AM 59.0 °F 42.1 °F 53% 30.00 in 10.0 mi ESE 8.1 mph - N/A   Overcast
2:53 AM 55.9 °F 42.1 °F 60% 30.00 in 10.0 mi SE 8.1 mph - N/A   Mostly Cloudy
3:53 AM 52.0 °F 41.0 °F 66% 29.99 in 10.0 mi SE 6.9 mph - N/A   Partly Cloudy
4:53 AM 53.1 °F 41.0 °F 64% 29.98 in 10.0 mi SE 6.9 mph - N/A   Partly Cloudy
5:53 AM 48.0 °F 39.9 °F 74% 29.99 in 10.0 mi SSE 8.1 mph - N/A   Clear
6:53 AM 48.0 °F 39.9 °F 74% 29.99 in 10.0 mi SSE 8.1 mph - N/A   Clear
7:53 AM 48.0 °F 41.0 °F 77% 29.99 in 10.0 mi SSE 9.2 mph - N/A   Clear
9:53 AM 62.1 °F 41.0 °F 46% 29.99 in 10.0 mi South 11.5 mph - N/A   Clear
10:53 AM 66.9 °F 41.0 °F 39% 29.99 in 10.0 mi SW 10.4 mph - N/A   Partly Cloudy
11:53 AM 71.1 °F 41.0 °F 34% 29.99 in 10.0 mi WSW 8.1 mph - N/A   Clear
12:53 PM 73.0 °F 44.1 °F 35% 29.97 in 10.0 mi West 9.2 mph - N/A   Clear
1:53 PM 75.0 °F 45.0 °F 34% 29.95 in 10.0 mi SW 10.4 mph 16.1 mph N/A   Clear
2:53 PM 75.9 °F 44.1 °F 32% 29.93 in 10.0 mi SW 8.1 mph - N/A   Clear
3:53 PM 77.0 °F 42.1 °F 29% 29.92 in 10.0 mi WSW 10.4 mph - N/A   Clear
4:53 PM 77.0 °F 41.0 °F 28% 29.91 in 10.0 mi West 8.1 mph - N/A   Clear
5:53 PM 73.9 °F 42.1 °F 32% 29.92 in 10.0 mi WSW 4.6 mph - N/A   Clear
6:53 PM 66.0 °F 42.1 °F 42% 29.93 in 10.0 mi South 5.8 mph - N/A   Clear
7:53 PM 64.9 °F 42.1 °F 43% 29.94 in 10.0 mi SSW 6.9 mph - N/A   Clear
8:53 PM 62.1 °F 43.0 °F 50% 29.94 in 10.0 mi SSW 8.1 mph - N/A   Clear
9:53 PM 62.1 °F 44.1 °F 52% 29.96 in 10.0 mi SW 8.1 mph - N/A   Clear
10:53 PM 61.0 °F 43.0 °F 52% 29.99 in 10.0 mi West 6.9 mph - N/A   Clear
11:53 PM 60.1 °F 42.1 °F 51% 30.01 in 10.0 mi NNW 8.1 mph - N/A   Clear